Location: Newark
(47.3150°N, 5.1150°E)
Time: 00:20:13
(UTC+00:00)

O/OREOS (USA 219) - Pass Details

Date: 16 December 2019
Orbit: 621 x 646 km, 72.0° (Epoch: 22 May)

Event Time Altitude Azimuth Distance (km) Brightness Sun altitude
Exits shadow 06:12:37 10° 326° (NW) 2,043 ? -10.9°
Maximum altitude 06:17:04 52° 250° (WSW) 801 ? -10.2°
Drops below altitude 10° 06:21:28 10° 175° (S) 2,019 ? -9.5°
Sets 06:23:45 0° 170° (S) 2,918 ? -9.2°
